This is the latest recevied weather packets stored in our database for station/object KC3UTO. If no packets are shown the sender has not sent any weather packets the latest 10 day(s).
| Time | Temp. | Humidity | Pressure | Rain* | Wind** | Luminosity | Snow |
|---|---|---|---|---|---|---|---|
| 1788477560 | 27.78° C | 73% | 1012.5 hPa | 0 mm | - | 6 W/m² | - |
| 1788477255 | 27.78° C | 73% | 1012.7 hPa | 0 mm | - | 10 W/m² | - |
| 1788476950 | 28.33° C | 72% | 1012.6 hPa | 0 mm | - | 14 W/m² | - |
| 1788476646 | 28.33° C | 72% | 1012.7 hPa | 0 mm | - | 13 W/m² | - |
| 1788476342 | 28.33° C | 72% | 1012.6 hPa | 0 mm | - | 11 W/m² | - |
| 1788476037 | 28.89° C | 70% | 1012.4 hPa | 0 mm | - | 12 W/m² | - |
| 1788475734 | 28.89° C | 69% | 1012.2 hPa | 0 mm | - | 14 W/m² | - |
| 1788475429 | 28.89° C | 68% | 1012.3 hPa | 0 mm | - | 16 W/m² | - |
| 1788475125 | 28.89° C | 67% | 1012.4 hPa | 0 mm | - | 19 W/m² | - |
| 1788474824 | 29.44° C | 66% | 1012.2 hPa | 0 mm | - | 24 W/m² | - |
| 1788474519 | 29.44° C | 65% | 1011.8 hPa | 0 mm | - | 31 W/m² | - |
| 1788474218 | 30° C | 65% | 1012 hPa | 0 mm | - | 35 W/m² | - |
| 1788473913 | 30° C | 65% | 1012.1 hPa | 0 mm | - | 38 W/m² | - |
| 1788473612 | 30° C | 65% | 1012.2 hPa | 0 mm | - | 40 W/m² | - |
| 1788473310 | 30° C | 64% | 1012.3 hPa | 0 mm | - | 44 W/m² | - |
| 1788473005 | 30° C | 65% | 1012.1 hPa | 0 mm | - | 52 W/m² | - |
| 1788472703 | 30° C | 65% | 1012.4 hPa | 0 mm | - | 54 W/m² | - |
| 1788472399 | 30° C | 64% | 1012 hPa | 0 mm | - | 58 W/m² | - |
| 1788472098 | 30° C | 64% | 1012 hPa | 0 mm | - | 63 W/m² | - |
| 1788471813 | 30° C | 64% | 1011.9 hPa | 0 mm | - | 84 W/m² | - |
| 1788471494 | 29.44° C | 64% | 1011.9 hPa | 0 mm | - | 85 W/m² | - |
| 1788471189 | 29.44° C | 65% | 1011.7 hPa | 0 mm | - | 64 W/m² | - |
| 1788470885 | 30° C | 63% | 1011.8 hPa | 0 mm | - | 56 W/m² | - |
| 1788470582 | 30° C | 64% | 1011.5 hPa | 0 mm | - | 67 W/m² | - |
| 1788470281 | 30° C | 64% | 1011.8 hPa | 0 mm | - | 74 W/m² | - |
* Rain latest hour (hover to see other rain measurements)
** Current wind speed in m/s (hover to see current wind gust speed)